Regional Weather Roundup
Issued by NWS

Home | Current Version | Previous Version | Graphics & Text | Print | Product List | Glossary On
Versions: 1 2 3 4 5 6 7 8 9 10 11 12 13 14 15 16 17 18 19 20 21 22 23 24 25 26 27 28 29 30 31 32 33 34 35 36 37 38 39 40 41 42 43 44 45 46 47 48 49 50
000
ASUS43 KLOT 270803
RWRIL

ILLINOIS REGIONAL WEATHER ROUNDUP
NATIONAL WEATHER SERVICE CHICAGO/ROMEOVILLE IL
300 AM CDT THU APR 27 2017

NOTE: "FAIR" INDICATES FEW OR NO CLOUDS BELOW 12,000 FEET WITH NO
SIGNIFICANT WEATHER AND/OR OBSTRUCTIONS TO VISIBILITY.

* THESE STATIONS ARE NOT UNDER NWS QUALITY CONTROL. THEY ALSO MAY NOT
  REPORT WEATHER SUCH AS PRECIPITATION OR FOG.

ILZ001-002-007-009-015-016-024-270900-
NORTHWEST ILLINOIS

CITY           SKY/WX    TMP DP  RH WIND       PRES   REMARKS
MOLINE         RAIN      43  40  89 NW13      29.46F FOG
STERLING*      RAIN      45  44  97 NW13      29.40F
SAVANNA*       RAIN      43  42  93 NW13      29.43S
$$

ILZ003-004-008-010-011-017-018-270900-
NORTH CENTRAL ILLINOIS

CITY           SKY/WX    TMP DP  RH WIND       PRES   REMARKS
ROCKFORD       LGT RAIN  50  47  89 NW10      29.38F FOG
FREEPORT*      LGT RAIN  45  44  97 NW10      29.40F
ROCHELLE*      DRIZZLE   49  48  99 NW10      29.37F
DE KALB*       DRIZZLE   51  51  98 N6        29.35F
PERU*          RAIN      48  47  96 NW16      29.37S
$$

ILZ005-006-012>014-019>023-270900-
NORTHEAST ILLINOIS

CITY           SKY/WX    TMP DP  RH WIND       PRES   REMARKS
CHICAGO-OHARE  LGT RAIN  60  57  89 S12       29.35F
CHICAGO-MIDWAY LGT RAIN  61  59  93 S13       29.36F
AURORA         LGT RAIN  60  58  92 S14G23    29.34F
LANSING*       LGT RAIN  60  60 100 S14G20    29.39R
JOLIET*        LGT RAIN  61  59  95 S9        29.35F
WAUKEGAN       CLOUDY    55  55 100 S13       29.33F FOG
DUPAGE AIRPORT LGT RAIN  59  59 100 S12       29.33F FOG
KANKAKEE*      LGT RAIN  58  57  97 S16G23    29.35F
WHEELING       LGT RAIN  60  60 100 S10       29.36F
MORRIS*        LGT RAIN  59  57  92 S15       29.33F
NORTHERLY ISL    N/A     60  58  92 S10         N/A
$$

LMZ740>746-270900-
SOUTHERN LAKE MICHIGAN

STATION/POSITION SKY/WX   TEMP    WIND        PRES    VSBY  WAVE
                          AIR SEA DIR/SP/G                  HT/PER
                          (F)     (DEG/KT/KT) (MB)    (MI)  (FT/S)
SOUTHERN BUOY              47 42   90/  8/  8  996.0          0
HARRISON CRIB              56     170/ 12/ 13   N/A
BURNHAM HARBOR             60     160/ 10/ 13   N/A
CALUMET HARBOR             61     170/  7/ 11  994.5F
BURNS HARBOR               62     160/  9/ 16  995.9F
MICHIGAN CITY              61     150/ 11/ 13   N/A
MICHIGAN CITY 6N           57 49                N/A           0
ST. JOSEPH                 54 50  150/  6/  8  995.7F         1
$$

ILZ025>027-034>036-040-047-049-050-058-095>099-270900-
WEST-CENTRAL ILLINOIS

CITY           SKY/WX    TMP DP  RH WIND       PRES   REMARKS
QUINCY         LGT RAIN  43  41  93 NW15      29.53S
GALESBURG*     RAIN      42  42  99 NW14G21   29.45F
MACOMB*        LGT RAIN  42  42  98 NW20G28   29.51S
JACKSONVILLE*  LGT RAIN  45  43  94 NW20      29.47F
PITTSFIELD*    RAIN      45  43  93 W13G20    29.53F
$$

ILZ028>032-037-038-041>044-048-051>054-059>061-270900-
CENTRAL ILLINOIS

CITY           SKY/WX    TMP DP  RH WIND       PRES   REMARKS
PONTIAC        RAIN      59  59  98 S12G18    29.36F
BLOOMINGTON    LGT RAIN  57  55  93 S14       29.36F
DECATUR        LGT RAIN  58  57  97 SE16      29.36F
PEORIA         RAIN      46  45  96 NW14      29.43R FOG
LACON*         LGT RAIN  46  46 100 NW17      29.39S
LINCOLN*       RAIN      49  49  99 W12G25    29.40R
SPRINGFIELD    RAIN      49  32  52 NW17G24   29.44R
TAYLORVILLE    RAIN      48  47  95 W21G30    29.44R
$$

ILZ033-039-045-046-055>057-062-063-270900-
EAST-CENTRAL ILLINOIS

CITY           SKY/WX    TMP DP  RH WIND       PRES   REMARKS
CHAMPAIGN      CLOUDY    58  54  86 SE17      29.38F
RANTOUL*       CLOUDY    60  57  92 S13       29.38F
MATTOON        CLOUDY    58  57  97 S13       29.39F
PARIS*         CLOUDY    58  57  95 SE12      29.42F
$$

ILZ079-100>102-270900-
SOUTHWEST ILLINOIS

CITY           SKY/WX    TMP DP  RH WIND       PRES   REMARKS
ALTON          CLOUDY    48  46  92 W15       29.53R
BELLEVILLE     CLOUDY    48  48 100 W8        29.52R
CAHOKIA*       CLOUDY    50  46  86 W10       29.54R
SPARTA*        CLOUDY    48  46  93 W9        29.55S
$$

ILZ064>066-069>071-074>076-080>082-084>086-088>090-092>094-270900-
SOUTH-CENTRAL ILLINOIS

CITY           SKY/WX    TMP DP  RH WIND       PRES   REMARKS
CARBONDALE     CLOUDY    50  49  96 W13G23    29.55R
CAIRO*         CLOUDY    52  49  90 W17G23    29.58R
EFFINGHAM*     DRIZZLE   59  59 100 SE12G21   29.43S
MARION         CLOUDY    52  52 100 W9        29.56R FOG
MT. VERNON     LGT RAIN  51  50  96 W13G20    29.52R
CENTRALIA*     DRIZZLE   51  50  98 W16G24    29.51R
SALEM*         LGT RAIN  52  49  92 W14       29.50R
METROPOLIS*    DRIZZLE   60  59  95 W15G24    29.55R
$$

ILZ067-068-072-073-078-083-087-091-270900-
SOUTHEAST ILLINOIS

CITY           SKY/WX    TMP DP  RH WIND       PRES   REMARKS
LAWRENCEVILLE  CLOUDY    60  57  89 S12       29.47R
FLORA*         RAIN      61  58  90 S18       29.45R
FAIRFIELD*     HVY RAIN  59  58  95 SW16G26   29.48R
HARRISBURG*    DRIZZLE   60  59  96 S12G18    29.51R
CARMI*         CLOUDY    60  59  96 S16G23    29.49R
$$

ABBREVIATIONS USED IN REMARKS
   TC - TEMPERATURE IN CELSIUS
  WCI - WIND CHILL INDEX
   HX - HEAT INDEX
  VSB - VISIBILITY
$$





USA.gov is the U.S. government's official web portal to all federal, state and local government web resources and services.